Location: Albuquerque Trailhead
(34.7934°N, 106.3736°W)
Time: 22:50:49
(UTC+00:00)

NOAA 19 - Pass Details

Date: 04 April 2023
Orbit: 840 x 859 km, 99.1° (Epoch: 28 May)

Event Time Altitude Azimuth Distance (km) Brightness Sun altitude
Exits shadow 02:30:41 12° 141° (SE) 2,293 7.0 -13.4°
Maximum altitude 02:35:24 45° 71° (ENE) 1,131 5.5 -14.3°
Drops below altitude 10° 02:40:35 10° 0° (N) 2,467 7.9 -15.3°
Sets 02:43:02 0° 354° (N) 3,403 8.7 -15.8°
